Location: Sungai Bunut
(2.6333°N, 113.7333°E)
Time: 10:58:32
(UTC+00:00)

Transit 2A - Pass Details

Date: 10 December 2023
Orbit: 599 x 953 km, 66.7° (Epoch: 01 March)

Event Time Altitude Azimuth Distance (km) Brightness Sun altitude
Rises 17:39:22 0° 318° (NW) 2,968 - -61.7°
Reaches altitude 10° 17:41:52 10° 305° (NW) 2,108 - -61.3°
Maximum altitude 17:45:50 26° 249° (WSW) 1,393 - -60.6°
Drops below altitude 10° 17:50:08 10° 193° (SSW) 2,299 - -59.8°
Sets 17:53:01 0° 181° (S) 3,296 - -59.3°
